Wind_Speed
35 34 33 34 35 32 31 29 27 26 25 24 25 26 24 22 22 24 23 22 22 21 22 22 22 21 19 16 13 14 14 13 10 7 10 17 21 16 11 11 11 10 9 8 7 6 4 5 4 2 4 3 1 0 1 2 0 2 2 2 3 2 2 4 7 4 1 6 9 9 11 12 9 6 3 4 4 2 4 4 1 1 2 2 3 3 6 12
35 34 33 34 34 31 28 27 27 26 25 25 26 25 24 23 21 23 23 22 23 22 22 22 22 20 18 14 12 13 12 11 6 7 19 22 16 15 15 15 14 12 9 9 8 6 4 5 3 3 3 3 0 0 1 1 1 1 1 2 3 3 2 1 6 5 0 6 11 10 9 8 8 9 5 6 6 4 5 6 3 4 6 5 2 3 8 12
36 35 34 34 33 30 27 26 26 27 26 25 26 25 24 23 22 23 23 22 23 22 22 22 21 19 16 14 12 12 8 5 2 10 22 20 16 16 14 15 15 13 10 9 7 7 8 6 4 4 3 2 1 0 1 0 1 0 2 4 3 3 2 0 3 4 0 3 12 11 6 4 4 7 5 5 6 6 8 7 6 7 9 9 6 6 11 14
37 36 35 35 34 31 28 26 26 28 29 26 26 27 25 24 23 23 23 23 23 23 22 21 20 18 16 14 12 11 8 2 3 16 21 17 20 18 16 18 16 13 10 8 5 6 8 6 3 3 3 3 1 1 2 1 0 1 2 2 3 2 2 2 2 3 1 1 9 11 7 6 4 4 5 6 6 6 9 9 9 10 11 11 9 10 15 17
37 36 36 36 34 31 27 26 28 29 28 27 27 27 26 24 23 24 23 23 23 23 22 20 20 18 16 15 13 14 10 1 4 15 17 17 21 18 18 22 19 15 10 9 6 5 6 4 2 1 3 4 3 3 3 2 1 2 0 3 2 1 1 3 1 2 2 1 7 11 9 7 6 4 6 9 9 5 4 5 8 7 6 10 11 13 17 19
38 35 35 35 32 31 28 27 29 29 26 26 28 27 26 25 23 24 23 22 23 23 23 21 20 18 18 16 15 15 9 1 2 10 15 18 19 16 20 24 21 16 12 10 7 6 6 4 5 3 2 3 5 4 2 2 1 2 1 1 1 1 1 3 1 2 2 4 9 10 8 8 8 6 4 8 9 1 4 2 2 1 3 9 12 14 17 19
38 35 35 34 31 31 29 28 30 28 26 26 27 26 27 26 24 24 22 22 22 23 23 22 20 19 19 18 14 10 3 5 4 6 13 17 17 17 21 23 21 16 14 12 9 7 6 7 8 4 2 2 4 3 3 3 1 2 2 3 1 2 2 1 1 2 2 4 5 6 7 8 9 6 3 8 9 4 5 4 3 2 6 10 12 13 16 18
38 36 35 34 32 31 30 30 30 27 26 26 25 26 27 26 25 23 22 22 22 23 23 22 22 21 22 20 12 5 2 8 7 3 8 14 15 18 21 20 19 17 16 15 12 9 7 8 8 4 4 2 3 5 4 4 2 3 2 4 3 2 3 2 2 3 2 1 2 5 7 5 3 2 3 9 7 4 3 4 4 3 6 9 11 13 14 16
38 37 36 34 33 32 31 32 30 28 26 26 26 26 26 26 25 23 22 22 22 23 23 23 23 22 23 18 8 4 7 10 6 3 5 12 15 17 20 18 19 19 16 15 13 11 7 7 7 4 4 2 3 5 4 5 4 1 3 4 4 3 3 3 4 3 2 1 2 7 6 2 1 1 5 7 2 4 3 4 4 3 6 7 9 11 13 14
38 38 36 34 33 33 33 32 30 28 26 26 27 25 23 24 24 23 22 21 22 23 24 24 24 25 23 15 7 6 7 8 8 4 3 10 14 18 20 17 19 20 15 12 12 12 8 6 6 3 2 1 2 2 1 4 2 5 7 6 5 4 3 2 4 3 2 3 3 6 6 2 2 2 6 3 3 2 4 4 2 4 6 7 7 9 11 12
39 38 36 35 34 34 33 31 30 29 27 26 26 24 23 23 24 23 21 20 22 23 24 25 26 27 21 12 9 7 4 6 10 10 6 10 13 17 18 15 18 18 14 11 11 14 9 5 7 4 1 3 5 1 0 2 5 9 10 9 6 4 5 3 6 4 2 3 2 2 6 3 3 3 4 3 3 2 5 5 3 4 6 6 7 7 8 10
40 39 37 36 36 35 33 31 31 29 28 26 25 24 23 23 23 22 21 20 20 22 25 27 29 27 17 8 8 5 2 5 10 12 12 12 13 16 15 11 14 16 12 9 10 15 11 6 10 5 1 4 6 3 2 3 5 7 4 6 5 3 5 3 4 2 2 3 1 2 3 2 6 7 4 4 1 3 5 6 5 5 5 5 6 6 7 9
41 39 37 38 37 35 32 31 31 30 28 26 24 23 23 23 21 20 20 19 18 23 25 27 30 25 12 5 6 5 3 4 8 11 14 14 13 15 13 10 12 12 11 7 6 13 12 9 10 5 1 2 3 2 5 4 1 4 1 2 4 4 4 2 2 1 2 2 1 3 3 5 10 9 5 4 1 4 5 7 6 6 5 5 5 5 7 8
41 39 39 38 37 35 33 32 31 29 27 25 23 23 23 22 21 20 19 18 17 21 24 27 29 19 7 3 3 8 8 5 8 12 13 14 13 13 12 10 11 10 8 5 3 8 10 9 8 5 2 1 3 3 5 4 1 4 4 1 2 4 4 3 2 1 3 2 1 5 4 2 5 5 4 3 2 4 5 7 7 6 6 5 5 6 7 9
41 41 41 38 37 35 34 33 31 28 26 24 24 23 22 21 21 19 18 18 17 19 23 26 25 12 4 3 2 9 11 7 9 11 12 15 13 11 10 11 10 7 6 3 4 7 9 9 7 5 2 1 5 6 4 2 0 2 4 4 2 3 3 3 2 0 1 2 2 5 5 3 2 3 4 2 3 6 7 6 6 6 7 6 6 6 7 8
42 42 42 39 38 36 35 34 30 28 27 25 24 23 22 21 20 18 17 18 16 21 23 20 20 10 3 4 3 7 9 7 10 11 12 14 10 9 12 13 9 6 5 5 8 11 9 7 3 1 3 3 6 7 5 3 3 1 3 4 4 4 3 2 2 1 1 2 4 4 3 2 1 3 4 2 3 5 6 7 7 6 7 7 6 6 6 7
43 43 42 41 38 37 37 33 30 30 28 26 25 24 22 20 19 18 17 17 17 22 18 13 17 8 2 4 4 5 7 7 11 12 14 12 8 12 15 9 6 8 9 8 8 7 4 3 1 1 2 2 3 5 7 6 6 3 1 1 1 3 3 3 3 1 1 2 5 5 4 5 1 3 4 2 2 3 5 7 8 6 5 5 6 6 7 7
44 44 43 42 39 38 37 34 32 31 30 29 26 25 23 21 20 18 19 20 19 17 9 7 14 6 3 6 4 4 7 10 13 13 14 12 10 14 13 7 7 9 8 6 3 1 1 1 0 2 3 2 4 7 8 5 6 8 5 3 2 3 4 3 2 2 1 3 5 5 7 12 7 4 6 5 3 4 6 6 5 6 5 5 5 6 7 8
44 43 43 41 39 38 37 35 33 32 32 29 27 27 24 20 16 12 14 17 14 9 4 8 11 4 3 7 4 4 9 13 14 12 13 13 12 11 9 8 8 6 5 3 2 1 1 2 2 4 6 6 7 8 6 3 7 10 8 5 5 5 3 1 1 2 1 4 7 9 9 12 10 9 9 5 4 4 7 6 6 6 5 5 6 6 7 9
44 43 44 41 40 38 37 36 33 33 33 31 34 28 17 15 11 7 8 8 5 1 2 12 8 1 3 4 6 10 12 11 7 8 14 15 14 11 6 4 4 3 3 3 3 2 1 4 6 7 7 7 7 4 1 3 4 6 4 2 2 4 3 1 2 3 2 4 7 8 8 11 12 11 10 4 3 5 8 8 8 7 7 6 7 8 8 10
44 43 43 41 40 38 37 37 34 33 32 35 35 17 7 11 8 10 11 4 1 5 1 13 7 2 3 4 10 13 9 5 3 6 15 15 15 10 1 1 5 3 1 1 2 3 2 7 7 4 3 5 5 3 4 4 2 3 4 3 2 3 1 2 1 2 2 3 3 1 6 13 14 12 10 6 6 10 11 10 11 10 8 7 7 9 9 8
45 43 43 42 40 38 37 36 34 33 32 33 23 4 1 5 6 18 16 6 2 4 2 9 5 2 3 5 10 8 3 5 4 4 10 12 10 6 1 3 7 4 1 2 3 3 4 7 3 3 4 6 5 4 4 4 4 3 3 4 3 2 2 2 1 2 1 3 1 2 5 11 13 12 11 10 10 11 10 10 11 9 8 8 8 8 8 7
45 44 44 43 40 39 38 36 33 32 32 28 14 4 3 9 20 27 14 6 5 1 2 6 5 4 4 4 8 5 3 6 5 5 8 10 5 3 5 6 5 4 2 5 6 5 5 3 1 5 7 8 5 2 5 4 3 3 3 4 4 3 3 2 3 3 1 1 1 1 4 9 9 9 11 10 8 7 7 9 9 7 9 8 6 5 6 8
45 45 45 44 42 40 38 36 33 31 30 23 13 6 10 22 32 25 7 5 5 1 1 2 1 4 4 4 7 7 4 3 4 8 10 9 5 2 5 5 5 5 5 6 6 6 3 1 2 4 7 10 7 4 6 6 4 2 3 5 3 4 4 1 4 5 1 1 1 2 5 8 6 8 10 5 2 5 5 6 9 9 9 8 6 6 7 8
45 45 45 45 42 40 38 35 28 27 26 17 12 8 16 27 26 16 6 4 4 2 1 1 1 4 5 5 6 5 4 2 1 5 9 9 6 4 3 2 3 6 6 5 4 4 1 2 2 4 4 7 8 7 8 8 5 3 5 5 2 6 6 4 6 6 2 3 1 1 5 5 1 5 9 2 0 6 4 4 10 9 7 7 7 9 8 8
46 44 46 46 43 43 37 23 19 24 21 14 13 12 20 24 18 11 5 2 5 4 2 5 4 6 8 5 5 4 4 4 1 2 8 9 5 4 4 2 1 3 6 5 2 1 1 1 1 5 5 5 5 6 6 6 6 4 3 4 3 5 7 8 8 5 2 2 1 1 5 4 1 3 3 1 3 7 4 6 11 8 6 6 7 7 6 6
46 45 47 45 45 45 28 13 20 25 14 12 17 16 19 20 13 7 3 2 6 5 5 4 1 7 9 3 5 7 5 6 4 2 3 4 3 2 3 5 2 2 4 4 2 1 3 3 1 3 5 5 5 5 4 6 6 2 1 3 7 8 8 9 8 4 1 1 1 1 2 4 5 3 2 1 4 7 6 9 11 8 6 5 6 5 5 6
47 48 47 45 47 40 22 19 27 22 11 13 19 17 17 16 8 3 3 3 4 4 5 2 1 7 6 1 5 3 1 5 6 3 1 3 3 1 3 8 6 5 3 3 5 1 2 5 5 6 5 5 5 2 4 8 6 0 1 2 5 5 6 6 6 3 1 1 4 3 1 4 6 2 2 1 4 8 8 10 10 7 4 4 4 3 4 4
48 48 46 46 43 29 21 25 26 21 18 19 19 19 18 12 4 2 2 3 3 3 3 4 4 6 4 4 4 1 1 2 1 4 3 3 3 2 3 5 5 8 3 1 3 0 1 2 3 5 5 4 2 3 0 5 3 3 5 5 6 5 5 3 3 3 2 4 5 3 1 4 5 2 3 1 3 7 8 7 5 2 2 3 2 1 2 2
50 48 47 48 38 26 23 23 25 27 23 21 22 20 15 7 4 6 4 3 4 3 2 3 5 6 9 10 5 2 5 1 2 4 3 2 4 4 2 2 4 7 3 4 4 1 0 0 1 1 1 2 4 4 3 1 3 8 7 7 8 5 3 2 1 1 3 5 3 2 2 3 4 2 4 4 2 3 5 4 1 2 2 2 2 1 1 1
52 48 49 47 35 30 23 15 25 29 20 23 24 16 10 3 2 8 5 2 5 4 2 4 5 8 15 15 7 4 4 3 3 8 6 3 4 4 2 2 3 3 2 2 3 1 1 2 1 1 1 1 3 5 6 3 3 5 4 6 7 3 2 2 1 2 5 5 1 2 2 3 5 3 2 2 3 2 4 3 1 4 4 2 2 2 1 1
53 50 49 44 36 32 21 17 30 28 21 27 20 7 6 5 3 6 4 3 5 5 6 7 7 10 16 14 7 5 4 3 4 8 9 7 5 6 4 5 5 4 4 4 2 2 2 1 1 2 0 2 2 5 5 2 2 2 5 8 6 4 4 4 3 3 5 2 2 1 1 3 7 6 4 7 7 5 5 5 2 2 2 2 2 1 1 2
53 52 46 38 35 30 21 27 35 28 27 29 13 1 5 6 8 8 6 4 3 3 5 6 5 9 15 12 7 6 4 2 5 4 4 5 7 5 1 1 5 3 3 4 3 3 2 0 1 2 2 2 4 5 4 4 5 5 7 8 7 5 5 5 4 1 3 0 2 1 1 3 6 5 7 11 6 2 3 5 3 3 4 4 2 2 3 3
53 52 42 34 34 27 23 33 34 30 32 22 7 4 6 7 9 8 8 5 0 3 5 8 9 11 12 8 7 8 3 1 5 4 3 5 7 6 2 2 3 1 3 4 3 5 5 3 2 3 2 2 4 3 1 4 5 3 1 2 5 5 4 5 3 2 2 2 2 1 2 4 3 0 3 7 3 2 4 4 3 5 6 4 4 4 4 4
52 48 39 32 30 25 27 35 33 33 29 11 4 8 9 10 8 8 10 5 2 3 5 9 13 12 9 2 2 6 2 1 5 4 5 7 8 8 7 7 5 2 5 5 2 3 4 2 1 1 1 1 2 2 2 3 4 1 1 0 3 3 2 2 1 1 1 1 2 3 3 4 2 5 5 4 3 5 6 3 4 6 5 3 4 4 3 3
47 39 35 29 26 26 30 34 33 33 22 6 6 9 9 8 5 6 8 5 5 8 10 10 9 9 9 2 2 7 1 1 7 5 4 5 6 8 9 7 6 6 6 6 2 1 3 1 2 1 0 0 1 1 1 0 2 2 2 3 2 1 3 3 1 1 1 3 3 3 4 4 2 7 6 1 2 4 3 3 5 5 3 2 4 3 2 2
40 30 24 21 26 30 31 33 34 28 13 4 8 10 7 4 2 4 6 6 8 12 14 10 5 6 9 6 6 9 4 3 6 5 5 5 4 7 8 5 6 10 7 3 1 3 3 2 2 1 1 1 1 1 1 2 0 2 3 4 2 1 1 1 1 1 1 4 2 2 5 4 1 3 2 0 5 6 4 3 4 3 2 3 4 3 3 2
32 24 15 16 29 33 31 34 32 19 4 3 11 11 4 3 1 4 7 8 10 12 11 8 3 3 8 9 7 9 8 6 6 5 5 5 4 7 10 5 4 10 8 2 1 2 3 2 1 1 1 1 1 1 2 1 1 0 1 2 2 2 2 2 2 2 3 4 2 2 3 4 4 4 2 1 5 6 4 3 4 5 5 5 4 4 3 3
23 14 8 16 32 33 32 32 23 9 2 5 12 11 3 3 1 2 8 10 7 8 8 5 2 1 5 8 8 9 9 7 9 7 4 5 4 5 11 8 4 7 7 4 3 2 2 2 1 1 1 0 1 2 4 4 1 1 0 1 0 1 2 2 2 1 3 3 2 2 1 3 6 5 3 6 6 5 3 3 4 6 5 5 4 3 3 2
13 6 5 20 34 35 33 26 12 5 6 8 8 5 2 3 2 2 6 10 5 3 5 4 4 5 4 5 6 7 7 6 9 7 4 6 4 2 7 9 4 5 5 3 2 3 2 1 2 2 1 1 2 2 3 4 4 3 4 5 3 0 0 1 1 2 1 3 2 3 3 3 2 3 7 10 5 1 2 2 4 5 4 4 3 3 3 2
6 4 6 23 37 37 29 16 6 7 8 7 3 2 1 3 5 4 3 3 2 1 1 4 6 6 5 6 5 6 5 4 7 6 2 7 8 4 6 9 7 7 5 4 3 3 2 1 3 4 2 3 2 1 2 2 1 1 3 5 5 4 3 3 3 1 1 1 1 2 4 3 1 2 5 6 2 0 1 3 3 3 4 3 2 3 3 2
5 4 8 28 43 37 21 8 6 6 5 5 2 2 2 3 6 7 4 0 2 1 1 3 3 4 5 6 5 7 7 5 6 7 4 7 10 6 4 7 10 11 8 5 3 2 2 3 3 3 2 2 2 1 1 1 2 1 2 1 3 3 3 5 6 3 2 1 1 1 3 4 1 2 3 3 2 2 1 2 3 3 3 2 2 3 3 2
5 4 11 33 44 31 14 7 7 4 3 2 2 1 2 2 4 6 5 4 3 1 2 3 2 2 3 3 5 8 9 6 5 7 5 5 6 3 3 6 11 12 8 3 3 2 1 3 4 2 1 1 2 0 1 0 1 2 2 2 3 3 2 2 2 2 4 4 3 2 4 5 1 2 2 3 4 3 3 4 4 3 3 2 3 3 3 2
3 4 7 26 36 22 9 9 10 9 6 4 3 2 1 0 3 5 7 6 3 3 4 3 2 2 2 3 6 9 10 6 5 6 3 3 3 1 4 9 11 11 8 5 5 6 4 3 4 4 2 1 1 1 1 1 2 3 2 3 4 3 4 3 1 1 3 5 5 5 6 6 0 1 2 2 2 3 3 3 4 3 3 2 3 3 3 2
2 3 2 12 21 12 3 6 8 8 9 7 5 4 2 1 1 1 4 5 1 2 5 3 2 3 4 4 4 5 9 5 3 4 2 2 2 1 3 9 11 10 8 6 7 6 5 4 5 6 5 5 4 5 5 4 3 3 1 2 6 7 7 5 2 3 4 4 5 6 8 6 1 1 2 2 1 3 3 3 3 3 4 3 4 4 3 2
2 2 1 4 7 5 2 1 3 7 9 9 7 5 4 4 2 1 1 4 1 1 3 2 3 4 4 6 6 5 9 4 2 4 6 5 3 1 1 6 8 6 4 9 12 7 2 2 5 9 9 9 10 10 9 7 5 6 8 9 12 12 10 5 2 4 6 3 4 8 11 10 4 2 2 3 3 4 3 3 3 4 5 5 4 3 2 2
1 1 3 3 3 5 2 1 4 7 9 10 7 6 7 5 4 2 1 2 2 3 3 2 4 7 8 10 8 6 9 5 2 3 6 5 2 2 2 2 3 1 1 6 11 7 2 3 6 10 11 11 11 8 8 9 9 12 14 13 13 12 11 9 7 8 6 4 5 11 12 14 10 6 5 5 5 4 4 5 4 4 5 5 3 2 3 3
1 2 1 1 1 5 5 6 9 9 11 12 5 5 9 7 7 8 3 1 1 2 2 1 5 11 14 14 9 6 7 6 3 4 4 4 3 3 3 2 1 0 2 2 4 5 4 6 6 8 12 13 8 4 5 8 9 9 9 10 11 11 13 13 14 12 8 6 11 14 14 15 12 8 9 8 6 5 4 3 2 1 3 3 3 3 4 5
1 2 0 2 1 3 4 6 9 8 12 13 6 5 11 11 9 7 2 4 3 3 2 5 8 10 12 13 9 7 7 8 7 6 3 4 4 4 3 2 1 1 2 2 2 1 4 6 5 7 12 12 6 3 4 7 7 5 5 8 11 12 14 17 17 14 11 10 13 17 16 14 11 8 8 5 2 1 0 1 1 4 5 4 4 5 5 6
0 1 1 1 2 2 3 7 9 8 9 12 8 7 9 10 9 4 1 4 7 4 3 7 9 8 8 11 11 8 12 15 13 9 8 7 4 3 3 3 3 2 1 3 1 2 3 5 4 4 7 8 3 3 2 4 6 6 4 5 9 10 12 15 15 13 10 10 14 18 16 12 10 7 6 3 3 3 2 3 5 7 5 4 5 7 7 8
1 1 0 2 2 2 4 7 8 7 8 10 10 8 8 10 9 5 1 1 2 4 5 6 9 7 3 7 11 11 14 14 9 10 13 11 8 7 5 3 7 7 3 4 3 1 2 2 3 4 5 5 2 3 3 3 2 3 2 5 10 10 10 12 12 13 11 11 16 15 11 11 9 4 5 5 5 6 6 7 6 6 6 7 8 9 10 10
1 1 1 1 2 2 3 6 8 7 6 8 10 8 8 9 6 5 4 0 2 1 2 6 11 7 3 7 10 8 7 5 3 5 8 5 4 6 4 4 11 12 8 6 4 2 4 4 3 5 7 6 2 3 5 5 2 2 3 9 13 12 12 12 10 12 12 12 13 10 10 13 7 3 5 7 7 8 8 7 6 6 8 10 11 11 10 8
Wind_Direction
195 195 193 189 186 186 187 189 189 189 190 191 191 193 196 192 194 199 197 194 192 195 197 198 201 203 206 207 203 203 217 230 244 248 235 239 231 222 228 239 261 275 274 280 276 265 286 279 250 240 189 158 333 238 135 42 51 233 209 189 176 170 178 173 178 178 108 145 158 172 186 183 163 161 156 168 193 122 151 202 235 211 203 85 75 105 137 149
194 195 193 188 185 183 183 186 187 189 190 190 190 189 194 195 196 198 196 193 190 193 194 195 199 200 205 206 200 198 209 224 236 245 237 240 231 219 231 243 252 260 261 263 259 224 220 265 243 211 212 182 290 290 171 354 270 227 183 198 197 171 135 168 170 159 156 146 152 169 192 194 170 157 161 191 180 153 186 198 216 223 190 167 136 146 158 162
193 193 191 186 184 183 183 185 188 192 191 190 190 188 192 195 196 196 193 190 189 191 191 193 196 197 203 199 193 187 182 189 213 247 240 238 233 223 229 239 241 250 253 250 252 219 220 257 230 202 219 200 134 176 198 28 274 229 216 213 171 148 120 5 180 154 38 132 148 160 183 201 163 148 165 197 177 179 208 198 196 215 203 179 151 156 167 169
192 192 191 187 185 183 183 185 187 192 193 190 190 189 191 193 194 194 191 189 188 189 189 190 192 194 196 187 184 172 150 114 242 242 240 235 235 230 228 232 234 241 245 232 227 216 223 238 223 219 223 200 101 200 204 77 278 173 226 243 111 134 144 148 191 134 73 200 153 143 153 181 148 147 179 180 176 202 220 212 205 208 201 177 148 160 171 172
192 192 191 189 185 183 181 184 188 190 189 188 189 189 190 191 192 192 192 189 187 188 187 187 189 189 183 172 170 160 149 135 228 224 227 225 227 227 225 227 230 234 228 213 203 196 208 205 176 224 234 199 147 183 186 77 351 171 238 349 66 172 138 121 154 124 102 125 143 141 156 160 134 166 192 190 199 209 219 220 219 216 192 165 151 159 170 177
190 191 191 189 184 182 180 183 188 186 184 186 187 187 189 190 190 189 189 186 185 187 185 186 185 178 174 167 163 161 161 236 201 183 192 207 218 222 221 220 223 223 213 198 181 172 179 185 192 199 217 192 174 180 141 93 297 215 162 38 59 344 73 108 111 151 167 161 157 154 149 136 152 185 185 208 218 114 48 353 294 303 107 135 143 156 171 182
188 190 191 188 183 181 181 182 184 183 183 185 184 185 188 189 188 186 185 184 184 184 182 183 179 171 170 160 153 157 177 278 265 176 177 194 207 214 211 210 211 208 200 184 164 168 176 193 200 192 177 176 185 179 112 122 265 270 155 131 128 6 36 65 82 157 209 187 156 136 138 152 182 181 135 222 221 110 62 24 24 77 122 135 147 165 179 186
186 188 188 186 184 181 180 181 180 180 182 184 183 183 186 187 187 186 184 183 181 180 179 179 172 168 167 155 145 149 232 254 245 184 171 176 184 200 198 195 199 196 192 184 174 171 174 194 197 182 189 209 182 164 141 152 203 256 155 137 145 44 59 67 102 151 186 183 114 137 152 160 183 144 161 225 215 135 94 65 70 110 136 154 164 174 182 188
184 186 186 185 183 179 178 178 178 180 180 182 183 182 183 184 185 184 183 181 179 177 176 175 169 165 165 156 145 173 213 234 217 128 137 158 168 188 188 185 190 189 187 185 180 169 169 195 197 196 209 232 184 160 163 187 202 168 120 126 134 102 89 103 116 135 138 109 176 166 145 97 82 338 238 222 166 115 122 97 93 136 160 175 174 178 183 189
182 184 185 183 180 178 177 176 178 180 178 178 178 177 177 179 181 181 180 178 176 174 173 172 165 162 162 157 157 192 208 211 195 177 129 149 166 177 179 183 186 186 178 173 176 171 178 195 178 187 238 210 176 163 165 195 162 105 112 103 101 106 96 109 122 124 125 107 250 181 131 90 115 265 242 180 74 102 159 146 134 180 187 189 182 183 187 192
182 183 182 179 178 176 175 175 179 179 175 174 174 173 173 176 177 176 177 177 174 173 172 168 164 163 162 163 181 193 190 184 192 200 173 158 172 173 176 184 185 185 174 166 185 187 191 192 160 150 280 169 150 121 352 164 118 121 129 104 81 103 101 82 118 128 163 127 281 181 117 84 113 230 227 108 54 171 183 174 172 208 200 192 190 186 191 199
182 181 179 177 176 175 174 175 178 176 173 172 171 170 172 174 174 174 175 174 173 172 168 167 167 164 158 178 210 195 142 173 188 185 169 168 176 174 174 178 183 190 180 171 198 200 201 192 170 155 321 172 147 146 148 136 120 129 150 118 110 135 111 79 112 135 262 142 239 191 135 184 200 219 180 90 15 151 185 195 186 215 209 192 194 192 200 202
180 178 177 176 175 175 173 174 176 173 170 170 168 168 170 171 171 173 171 170 173 170 166 168 168 163 158 192 219 217 187 159 178 177 166 170 176 172 172 171 179 193 194 189 197 200 205 198 181 156 49 148 133 168 127 98 120 140 188 139 142 181 148 99 90 186 228 125 254 230 214 211 208 216 149 107 239 147 186 207 196 207 205 200 198 203 210 204
179 176 175 175 175 173 173 175 175 170 167 167 166 165 166 168 166 165 165 166 168 166 166 169 167 164 179 202 195 214 205 148 168 177 168 172 169 158 163 166 173 187 193 202 192 191 197 186 166 126 64 68 112 154 118 83 304 138 150 195 170 200 166 107 72 218 186 139 265 231 238 229 190 198 143 129 197 181 209 209 199 201 200 209 202 211 220 211
178 174 173 175 173 172 172 173 171 168 166 164 163 161 162 163 161 159 161 160 161 164 164 167 168 167 205 224 195 198 192 164 172 181 177 175 164 145 153 160 160 169 175 193 175 156 160 157 147 123 83 43 140 148 115 84 2 116 168 184 185 218 174 114 102 323 183 144 212 227 239 245 180 153 130 129 183 199 228 218 206 205 204 212 208 218 226 222
177 173 173 173 172 171 171 170 170 170 166 160 159 160 159 156 154 151 153 153 156 162 160 163 176 187 218 193 164 176 183 186 183 183 182 178 174 151 143 144 137 130 123 120 130 127 127 130 125 97 103 142 169 155 132 144 161 189 224 176 168 204 184 148 136 26 351 147 201 234 266 261 141 121 129 123 170 188 228 232 225 220 210 212 213 219 226 230
175 173 171 171 171 170 170 169 169 169 164 160 158 156 151 145 145 142 145 149 150 155 154 164 179 195 282 158 151 178 179 187 182 176 179 181 182 157 139 125 112 114 106 105 121 116 90 81 106 235 109 136 183 163 167 186 180 166 265 114 150 211 187 180 154 111 330 215 211 216 254 252 183 108 157 167 172 194 231 236 231 230 221 214 214 220 226 230
174 172 170 169 170 170 170 169 167 165 161 159 156 148 141 137 140 139 141 142 135 139 151 174 174 189 240 175 165 178 163 170 172 169 173 171 167 159 140 120 124 121 106 98 114 90 53 38 224 174 153 171 180 186 192 186 165 165 178 176 174 225 226 214 163 123 185 219 222 203 236 250 239 207 203 181 165 234 251 250 247 241 233 223 219 225 226 229
173 171 169 167 169 170 169 169 167 163 159 156 148 137 130 127 125 126 140 147 141 143 174 179 177 194 181 166 148 134 145 157 161 159 161 159 158 149 122 118 125 118 123 145 162 143 133 140 186 190 183 184 183 200 206 137 161 175 181 190 177 185 218 225 75 22 253 206 219 216 229 252 248 234 227 190 151 234 258 261 259 246 236 230 223 229 227 231
172 170 168 166 168 169 168 168 167 166 164 155 145 138 131 134 128 127 159 182 189 246 163 164 174 350 87 129 132 126 129 137 140 152 157 157 151 130 88 99 104 89 144 158 153 142 204 186 197 205 188 177 181 195 93 83 167 176 165 191 183 181 178 140 90 24 329 226 221 227 246 262 260 250 246 219 174 244 254 250 250 241 234 229 220 226 226 230
171 170 167 165 167 168 168 169 168 168 167 157 153 151 152 159 155 157 162 175 267 330 131 154 150 36 80 113 142 138 126 110 76 147 158 159 155 143 79 123 137 149 158 99 114 109 206 212 206 199 145 142 151 122 92 99 132 171 185 182 188 216 167 90 86 58 17 245 221 260 267 259 259 262 260 241 231 250 247 244 249 238 229 228 223 228 226 229
170 169 166 164 164 166 168 169 170 169 165 163 169 209 219 172 129 143 147 122 134 329 24 139 132 76 81 127 162 162 125 115 106 148 161 161 169 171 164 163 161 161 103 120 132 125 206 220 192 106 102 96 89 96 113 104 119 159 187 182 186 198 136 107 120 79 59 244 246 37 270 262 261 265 264 248 240 247 241 241 251 245 233 226 221 225 224 227
170 167 164 163 163 165 167 169 170 169 169 173 188 247 176 150 133 138 136 99 126 0 65 154 163 138 110 149 187 201 152 139 149 180 177 165 170 180 149 158 161 134 148 184 171 167 197 226 101 120 141 129 107 128 137 117 138 167 167 185 189 164 177 206 167 128 52 284 320 345 282 276 263 257 257 244 236 251 250 247 253 252 243 235 231 235 227 229
169 166 164 162 162 165 166 167 168 172 177 183 204 210 151 144 144 143 125 87 122 85 168 185 176 157 145 153 190 197 158 131 158 170 183 172 143 147 158 147 138 142 181 193 181 182 176 27 71 140 164 159 147 159 174 181 195 211 206 200 181 168 198 330 121 134 111 198 243 306 283 276 248 240 248 225 182 255 250 247 248 240 236 241 259 259 239 234
168 166 164 161 161 164 163 163 168 176 180 190 218 195 149 149 151 147 115 97 137 120 251 217 134 196 179 146 175 187 136 111 150 158 175 174 141 137 152 110 161 177 172 154 161 193 163 39 129 144 170 171 160 174 193 200 199 215 222 212 195 176 165 100 128 147 186 206 179 326 261 261 189 229 245 225 305 249 223 232 245 234 214 220 241 246 236 234
168 166 163 161 161 161 159 162 172 174 177 201 210 170 154 158 157 154 121 83 167 154 166 166 160 191 179 150 150 158 156 156 3 76 153 165 147 129 141 115 320 179 150 132 147 200 107 57 152 152 159 161 176 200 192 193 201 208 216 192 152 149 141 136 158 172 215 210 78 327 246 254 257 226 225 15 294 260 238 238 247 237 206 205 226 237 232 231
168 166 164 161 162 162 158 155 166 167 173 207 195 164 160 163 157 167 127 94 186 161 145 158 245 183 169 153 155 161 171 144 100 56 129 149 148 85 148 161 149 143 143 138 175 206 115 123 127 136 144 158 188 210 179 184 202 193 155 162 146 146 153 159 170 188 251 103 110 237 258 267 265 242 119 31 287 265 246 239 243 236 214 212 222 229 230 231
168 167 164 163 164 165 160 149 158 171 181 184 175 160 161 161 156 182 145 156 179 129 146 162 80 158 146 137 174 164 138 127 130 167 61 95 131 43 172 175 163 141 145 184 189 232 104 159 172 150 156 185 195 204 160 180 200 205 85 144 137 136 146 158 169 168 61 243 204 178 164 251 253 234 115 16 271 257 245 234 235 226 203 214 218 213 228 235
168 167 165 164 164 167 169 159 160 176 178 168 163 158 157 158 155 157 162 187 160 98 143 141 134 152 139 153 162 82 102 112 102 156 138 103 93 40 156 166 135 119 85 298 171 74 18 188 185 160 173 184 140 34 58 197 196 141 136 106 92 87 87 121 168 142 128 238 221 158 122 254 252 213 168 179 248 246 241 226 221 212 198 223 229 230 239 241
167 166 165 163 161 162 163 163 170 175 174 170 163 155 153 156 163 163 184 204 151 120 117 145 165 160 152 159 161 160 155 104 51 127 132 115 78 44 71 92 97 112 75 30 76 58 277 169 7 127 179 145 106 66 16 341 124 140 145 112 100 95 81 98 96 125 190 231 219 90 17 277 266 230 191 204 234 245 245 238 182 155 191 197 204 247 264 261
165 166 166 164 163 162 155 162 178 175 175 172 160 150 151 133 168 175 179 169 133 134 155 166 168 155 165 171 163 163 146 89 150 151 145 142 99 93 132 132 99 101 130 113 86 45 65 98 126 86 81 129 115 82 44 38 136 148 158 136 119 110 132 149 126 189 219 225 128 49 343 250 242 237 188 236 300 286 253 260 174 150 161 168 185 222 259 275
165 165 166 166 167 166 163 169 173 170 170 167 155 153 162 131 189 192 164 150 157 173 179 173 178 172 173 170 140 133 135 117 181 168 149 151 149 151 164 174 162 151 178 172 139 111 97 95 82 60 192 220 164 108 70 44 237 216 168 162 156 148 165 188 183 199 228 228 72 33 300 235 245 255 262 272 276 253 233 243 224 163 191 224 209 227 270 270
164 164 165 168 167 168 170 166 165 165 164 161 151 149 167 160 196 192 163 175 179 152 144 135 151 161 161 160 146 144 133 136 188 184 137 147 162 162 107 154 167 162 165 156 141 148 158 222 123 132 173 225 202 160 141 178 208 199 174 175 178 159 170 193 176 223 255 224 59 325 262 250 259 261 252 255 264 258 231 242 247 255 266 271 298 306 294 286
162 162 163 167 166 169 170 164 165 164 158 157 154 145 164 187 196 182 173 194 325 95 124 122 127 145 157 161 160 159 136 115 176 167 133 152 167 173 183 189 182 99 107 146 166 174 188 207 175 161 146 169 205 220 179 152 167 193 180 183 189 172 185 199 181 209 223 107 85 155 225 229 223 57 255 253 282 314 253 251 266 265 261 274 296 287 279 276
159 160 160 162 166 169 169 166 167 163 156 156 172 160 180 198 192 184 175 165 139 125 118 127 132 146 163 122 139 182 184 141 174 159 150 167 176 179 181 186 191 158 140 164 183 170 195 226 43 32 306 173 197 274 341 109 138 183 7 338 211 180 144 143 90 149 122 67 152 180 245 248 264 309 287 253 263 264 252 248 256 257 248 250 273 268 255 258
154 157 157 160 168 168 169 171 167 162 160 159 170 179 202 200 178 177 163 126 140 137 120 130 137 152 166 137 180 202 240 130 170 173 173 181 189 184 183 184 183 187 176 165 157 153 184 224 11 1 224 90 297 293 319 130 157 159 164 184 210 64 103 117 115 67 33 257 197 165 251 260 290 286 276 213 253 252 234 231 240 248 245 231 252 250 234 237
150 153 156 161 170 167 169 172 165 162 170 176 184 198 206 201 135 137 139 114 135 140 133 145 162 169 169 162 182 187 168 135 170 191 180 173 196 187 188 197 178 189 201 169 169 210 170 130 15 357 125 72 305 231 35 2 72 147 175 171 141 48 60 135 185 123 165 240 212 156 243 258 235 259 287 317 247 233 200 211 242 247 231 223 233 234 229 225
146 148 149 163 170 167 167 167 160 160 173 189 204 214 200 191 174 127 133 126 139 154 153 156 166 181 176 169 169 174 171 164 173 187 173 176 216 180 175 197 186 189 200 139 134 216 152 134 43 6 179 59 5 197 148 59 13 329 205 146 120 196 206 184 189 171 185 227 246 193 240 265 216 218 315 287 240 238 212 191 227 232 214 211 219 221 230 224
140 138 138 167 169 166 162 159 153 152 165 190 207 214 176 128 135 138 143 132 134 162 162 162 162 169 184 170 149 158 178 176 162 171 181 188 217 179 175 189 183 185 188 147 160 174 121 173 160 94 266 10 1 229 184 164 125 58 145 128 353 263 219 187 161 168 202 210 240 229 227 243 214 200 228 235 233 236 220 196 216 225 214 207 209 207 215 211
137 127 141 167 167 162 155 148 141 160 189 202 204 196 125 104 88 229 162 135 134 181 164 167 167 152 157 152 134 152 176 171 161 177 200 180 188 238 195 190 162 161 159 109 147 158 109 213 160 112 312 200 183 223 206 182 162 157 171 174 181 152 28 231 146 67 230 204 212 245 248 242 214 168 207 227 236 194 207 251 240 233 230 216 208 214 212 186
134 106 151 167 162 156 147 141 157 182 195 209 190 93 121 137 135 182 205 117 100 295 119 141 153 149 143 146 152 154 153 158 171 185 202 184 196 226 203 186 159 144 139 117 155 168 136 163 150 136 172 196 193 346 315 276 172 162 193 184 181 155 131 192 198 126 351 246 194 237 267 262 170 163 216 229 262 90 223 266 261 259 261 241 227 239 234 186
141 114 163 166 161 155 149 155 180 187 211 206 160 88 127 135 141 165 204 163 98 58 75 119 135 145 147 150 150 150 152 159 177 188 202 205 210 215 195 173 153 150 157 155 162 167 107 109 114 123 174 223 300 3 64 301 320 309 274 203 173 163 164 198 210 184 136 147 97 87 280 275 133 157 244 254 282 302 285 268 274 287 281 256 248 248 253 261
131 104 150 162 162 161 158 162 169 197 232 178 109 56 99 129 150 158 186 192 158 144 136 126 141 156 156 148 139 154 163 160 181 197 200 204 211 205 149 156 150 153 160 148 143 150 108 113 114 105 81 1 317 219 119 64 278 254 255 206 186 190 183 192 211 172 148 163 163 165 248 261 124 120 252 266 277 283 269 244 243 280 297 242 232 239 230 244
106 79 132 164 172 178 172 167 179 194 189 147 130 136 81 73 162 159 183 187 174 162 144 131 167 159 143 151 147 162 172 171 202 213 199 178 197 90 134 164 159 159 171 175 173 179 181 158 134 121 116 149 196 179 171 186 211 226 221 183 187 154 96 90 98 143 192 201 190 205 247 255 47 58 245 244 268 264 258 237 215 239 267 208 201 224 220 227
102 65 70 170 183 200 209 179 188 177 158 154 171 176 138 95 179 195 180 163 129 156 146 137 161 124 118 138 113 148 180 181 187 197 190 181 190 53 153 181 179 180 179 153 147 167 185 174 160 163 168 181 190 193 197 189 181 217 212 155 188 178 159 164 152 171 213 207 175 205 243 250 69 47 245 219 222 245 235 219 214 230 240 213 193 201 201 218
114 111 117 154 186 220 279 330 176 163 161 165 173 183 174 158 156 327 177 162 175 147 110 107 148 115 118 151 134 154 191 194 53 170 186 181 171 70 161 189 195 208 176 136 137 142 168 180 188 199 200 198 205 207 196 171 155 188 199 192 195 194 183 169 127 192 203 166 172 217 237 247 234 159 223 246 211 225 232 215 224 229 225 218 197 194 209 240
90 110 145 130 158 194 228 318 172 168 167 167 167 177 178 162 143 161 235 204 181 153 85 57 163 161 160 162 154 163 183 175 73 176 181 168 148 66 68 148 195 286 7 156 151 126 114 216 202 208 221 219 216 210 179 171 186 201 203 197 191 187 179 178 200 211 177 131 223 230 229 246 243 176 180 232 216 215 235 222 217 210 204 203 185 194 241 246
43 68 124 28 141 183 203 199 184 173 164 166 169 172 176 172 164 175 191 39 189 196 143 100 194 183 172 163 154 152 165 171 196 197 163 141 143 121 88 81 176 40 28 195 176 117 146 216 207 198 223 230 219 183 160 180 199 207 201 189 180 177 177 191 212 212 171 171 232 235 221 232 241 199 189 212 212 211 225 215 215 216 199 199 196 210 231 233
82 99 139 339 22 168 176 160 161 164 165 171 180 181 185 187 177 176 148 125 178 234 186 182 192 184 171 165 160 151 159 178 202 206 163 125 139 141 120 122 162 108 82 161 227 183 171 201 198 191 221 232 210 144 171 185 183 191 194 178 173 177 185 199 213 213 202 209 234 241 235 235 243 226 205 202 181 185 240 57 189 216 208 200 209 221 231 232
120 129 156 94 72 110 124 133 147 157 166 178 187 183 192 193 177 166 110 159 177 188 194 189 177 166 168 172 171 174 183 190 197 193 166 143 152 170 162 162 149 107 109 159 190 300 217 189 154 157 220 236 188 126 184 188 178 185 179 161 168 179 194 209 220 219 216 230 241 247 253 257 255 235 202 163 114 122 188 219 214 212 202 196 213 225 229 229
328 325 176 129 96 105 139 143 153 160 168 186 191 178 187 194 178 147 128 240 197 173 179 166 145 134 148 182 190 196 195 196 194 175 167 163 172 179 175 173 153 141 158 177 157 208 221 180 102 124 211 238 194 167 163 91 109 167 140 162 175 180 194 207 216 213 205 219 237 245 255 258 254 217 167 170 161 173 204 213 213 213 202 201 214 222 226 227
351 342 328 103 93 99 149 144 153 168 179 190 189 177 179 188 178 153 150 132 355 33 159 152 143 137 149 191 205 203 173 157 118 143 159 148 141 160 157 157 158 156 162 172 167 170 172 166 139 158 202 225 206 162 147 116 126 213 195 188 184 190 205 207 213 220 209 209 225 230 235 241 236 143 173 195 183 194 214 211 208 213 203 204 216 223 230 232
Height
745 748 751 753 755 758 760 764 767 770 773 776 779 781 783 785 786 788 790 792 794 796 798 800 802 804 806 807 809 810 813 814 815 816 815 810 811 814 814 814 814 815 816 814 813 813 814 815 814 814 813 814 816 816 816 817 818 818 821 826 829 832 829 825 827 827 826 828 835 840 836 833 838 841 841 842 842 842 844 844 843 844 845 846 847 847 849 850
743 746 749 752 754 756 759 762 765 768 771 774 777 780 782 784 785 787 789 791 793 795 797 799 801 803 805 806 808 810 812 814 815 815 810 808 811 814 814 813 813 814 815 814 813 813 814 815 814 814 813 814 817 816 817 818 818 820 823 825 826 827 824 822 822 824 825 824 830 836 834 833 834 836 840 841 841 842 844 844 843 843 843 846 847 848 849 851
741 744 747 750 752 754 757 760 763 766 769 773 775 778 780 782 784 786 788 790 791 794 796 798 800 802 804 805 807 809 812 814 816 812 805 807 810 811 813 812 812 813 813 813 812 813 814 814 814 814 814 815 817 817 818 818 819 821 823 822 821 821 823 825 824 824 827 825 828 834 836 836 834 835 838 839 840 842 841 840 842 843 841 842 846 848 850 851
739 742 745 748 750 752 755 759 762 765 768 771 774 776 779 781 783 785 787 789 790 793 794 797 799 800 803 804 807 809 812 817 814 805 803 806 807 808 811 811 811 812 812 812 812 812 814 814 815 815 815 817 818 818 818 819 820 821 821 819 820 822 822 826 827 826 829 828 827 832 838 838 836 837 837 837 839 841 837 833 836 837 836 838 844 847 849 850
737 740 744 746 748 750 754 757 760 763 766 769 772 774 777 779 782 784 786 788 789 791 793 796 798 800 802 804 807 809 814 819 808 798 802 804 804 806 808 809 810 811 812 812 812 813 814 815 815 816 817 817 818 818 817 819 820 821 824 824 825 824 822 827 830 830 831 830 829 833 835 835 836 838 836 835 835 834 832 830 831 831 832 835 841 845 848 850
735 739 742 745 747 749 752 755 759 761 764 767 770 773 775 778 780 783 785 786 788 790 792 795 797 800 802 803 807 808 813 814 802 796 801 800 802 805 805 807 809 810 811 811 812 812 813 815 816 818 818 817 818 817 818 820 820 820 824 828 829 827 825 829 833 833 833 829 829 831 830 832 835 836 836 835 831 829 830 831 832 832 833 835 839 844 846 847
732 737 740 743 746 747 750 754 757 760 763 766 768 771 774 777 779 782 783 785 787 789 791 794 796 799 800 804 807 809 811 806 797 797 799 798 801 802 803 806 808 809 810 810 811 811 813 814 816 818 819 819 818 818 818 820 820 819 822 828 831 831 830 833 835 836 834 829 829 829 829 833 833 834 838 835 828 829 832 833 834 834 835 837 839 842 843 844
729 735 738 741 744 746 749 752 756 759 761 764 767 770 772 775 778 780 783 784 786 788 790 792 795 797 800 803 805 811 812 802 796 797 797 797 799 800 802 805 807 808 808 808 809 809 812 814 816 817 818 819 816 817 819 820 820 819 823 828 832 833 834 837 837 837 835 832 833 831 830 834 834 836 838 832 826 829 832 834 835 836 836 838 838 840 842 843
727 733 736 740 742 745 748 751 755 757 760 763 766 769 771 774 777 779 782 783 785 787 789 792 794 797 800 801 804 810 806 797 796 797 796 796 797 799 801 803 805 806 806 807 808 809 811 812 814 814 816 817 815 817 818 819 820 820 824 829 831 833 835 836 836 837 835 835 834 831 833 836 838 839 832 826 827 830 832 835 836 837 837 837 838 839 840 841
726 730 735 738 741 744 747 751 754 757 760 763 765 768 770 773 776 778 780 782 784 786 788 791 794 796 799 800 804 806 798 794 796 796 796 796 797 799 800 802 804 805 805 806 807 808 809 810 811 812 815 816 816 820 820 818 819 822 827 830 831 833 835 834 834 837 835 835 835 831 835 837 839 840 829 823 828 831 832 835 838 837 836 836 837 838 839 840
724 729 733 736 739 742 746 750 753 756 759 762 764 767 769 772 774 777 780 781 783 785 787 790 793 796 798 799 801 799 792 793 795 795 796 797 797 798 799 801 802 804 804 805 806 806 807 808 809 812 815 814 817 823 822 820 819 822 825 828 833 833 832 833 833 836 834 834 836 832 835 839 840 838 827 824 830 831 831 832 837 837 835 835 836 837 838 839
722 727 731 735 738 741 745 749 752 756 759 761 764 766 769 771 774 777 779 781 783 785 787 789 792 795 798 799 796 793 792 793 794 795 796 797 798 799 799 801 802 803 804 805 806 806 807 809 808 812 815 812 817 822 822 822 822 823 823 826 834 831 830 834 833 836 834 834 837 833 836 838 838 832 824 828 831 830 831 831 834 836 835 835 835 836 837 837
721 725 730 733 737 741 744 748 752 755 758 761 764 766 769 771 774 776 778 781 782 784 787 789 792 795 798 798 794 791 792 793 793 795 796 797 799 799 800 801 802 804 804 805 805 806 808 808 808 812 814 814 819 822 820 823 824 824 824 825 830 830 830 833 834 835 833 835 838 835 834 829 827 825 824 830 831 829 830 829 830 833 833 834 835 835 835 836
719 722 728 732 736 739 743 747 751 755 758 761 764 766 769 771 774 776 779 781 783 785 787 790 793 795 797 795 792 792 792 793 794 795 796 797 798 798 800 800 802 804 804 805 805 806 807 808 809 811 815 816 820 822 822 827 826 823 826 827 830 830 829 832 836 835 832 836 837 835 833 823 819 823 826 831 831 829 827 825 827 829 831 832 833 835 834 834
718 721 726 731 735 739 742 747 751 755 758 761 764 766 769 771 774 777 780 782 784 786 788 791 794 796 796 793 791 791 792 792 793 794 796 797 797 798 799 800 802 803 804 805 805 806 807 808 810 813 818 819 818 822 826 830 828 825 828 832 834 831 830 832 836 836 833 834 835 834 832 821 817 822 826 831 831 829 825 822 824 826 828 829 830 832 832 832
716 720 724 729 734 738 742 747 751 754 758 761 764 767 769 772 775 778 780 783 785 787 789 793 794 794 795 792 790 791 791 792 792 794 796 797 797 797 799 801 803 803 804 805 805 807 807 809 814 817 819 821 819 819 826 832 831 830 828 830 836 833 831 832 834 838 836 834 833 833 830 820 818 823 827 831 829 828 825 822 822 823 825 826 827 829 829 829
715 719 722 728 733 737 742 746 750 754 758 761 764 767 770 773 775 778 781 784 786 788 790 792 793 794 793 790 790 790 789 789 791 793 795 796 797 797 799 801 803 804 804 806 807 807 808 812 818 819 817 821 819 817 827 835 833 834 832 832 840 837 832 831 832 837 838 835 832 833 831 821 818 823 826 829 829 828 826 821 820 820 822 824 825 826 826 826
714 718 721 726 732 737 742 746 750 754 757 760 764 767 769 773 776 778 781 784 787 792 794 793 794 795 791 787 787 787 785 787 789 791 793 796 798 798 798 800 803 804 805 808 809 809 811 815 817 818 819 823 821 817 824 830 827 831 832 831 837 839 836 832 831 837 838 835 832 833 833 822 816 819 820 824 829 827 824 821 820 820 820 821 822 822 823 823
713 717 720 725 731 737 741 745 749 752 755 760 763 766 770 773 777 780 782 783 783 787 788 785 786 787 783 782 783 784 784 786 788 791 793 795 798 799 798 800 802 804 807 811 811 811 812 816 820 821 820 822 820 814 816 819 818 821 823 822 826 832 837 837 836 842 842 836 832 831 828 820 815 816 815 819 826 827 824 823 822 820 819 819 819 819 819 819
712 717 720 724 730 736 741 745 748 751 753 756 758 762 766 769 775 781 783 780 776 776 774 773 777 778 777 779 781 783 785 787 788 790 792 794 796 798 799 801 803 805 809 811 813 815 815 818 821 818 816 817 816 815 816 819 818 819 822 825 828 828 830 837 841 845 845 836 829 828 827 823 817 814 814 816 822 825 822 821 820 817 816 815 815 815 814 814
711 716 719 723 729 735 740 744 747 750 752 753 752 752 752 751 756 764 772 777 776 774 771 771 775 777 777 780 780 781 783 787 789 789 791 793 794 798 802 803 806 811 814 814 815 816 818 819 817 813 814 816 818 820 821 823 824 824 826 829 833 832 830 838 843 843 847 839 830 834 835 826 818 813 812 814 818 818 816 815 814 812 812 812 811 811 810 810
711 715 718 722 728 734 739 743 746 749 752 753 751 748 745 743 744 747 755 768 775 775 773 773 776 777 778 780 780 779 781 786 791 790 791 792 793 797 803 805 807 813 817 816 816 820 822 819 815 816 819 821 824 827 824 825 828 828 829 830 832 834 835 841 845 845 847 840 832 838 838 823 814 812 809 810 811 809 809 809 807 807 808 808 808 808 808 808
710 714 718 722 727 733 738 742 746 749 751 751 750 748 746 744 746 748 751 762 774 777 776 775 775 777 779 780 780 780 779 784 790 791 790 791 794 797 800 804 808 813 817 814 814 823 825 819 817 821 822 822 828 829 824 825 829 829 830 829 830 835 833 832 839 847 848 845 840 841 838 822 810 809 806 804 807 807 808 808 807 808 806 805 805 805 805 805
709 713 717 720 726 732 737 741 746 749 749 750 749 746 745 745 747 750 752 762 773 776 776 776 775 775 777 778 778 779 779 782 785 788 789 789 793 797 798 803 808 813 815 812 812 817 818 822 826 825 820 819 826 830 826 823 827 831 830 826 827 833 834 832 837 844 846 847 845 840 834 818 806 808 802 799 808 809 808 809 807 806 806 805 805 804 804 803
709 713 716 720 726 730 736 741 745 747 749 750 748 745 746 746 747 748 752 765 775 776 777 777 776 775 774 775 777 777 778 781 783 785 786 787 790 796 800 802 806 810 812 813 815 815 817 827 831 826 822 820 822 827 825 820 824 830 829 825 824 826 832 840 841 839 838 839 843 843 835 818 807 809 803 801 807 805 802 805 801 798 800 803 804 802 802 802
708 713 715 719 724 728 735 740 742 746 749 749 744 744 746 745 748 747 750 769 778 777 778 776 776 775 772 775 776 776 780 783 784 784 785 786 786 790 799 804 806 809 812 814 817 818 823 831 830 824 824 824 823 824 822 821 824 828 828 827 827 827 831 839 838 834 833 835 845 849 837 821 809 801 801 808 808 801 799 799 795 793 795 798 800 798 799 800
707 711 715 718 721 725 729 733 739 744 746 744 740 744 745 745 749 746 754 780 781 771 774 777 775 772 770 774 773 776 782 783 785 786 784 785 786 787 795 804 807 809 812 813 817 821 825 831 830 824 825 826 825 823 821 822 823 826 833 834 829 828 832 835 834 832 835 838 845 847 838 831 820 801 801 813 807 797 796 793 789 789 790 793 796 796 797 798
705 710 713 717 720 723 724 727 735 739 739 738 739 743 744 745 749 745 760 787 780 763 768 773 772 769 771 774 772 775 779 777 782 788 785 785 787 787 792 798 800 805 811 811 815 822 822 824 825 823 825 825 821 821 821 821 821 829 841 840 831 831 832 833 832 834 840 840 836 839 840 837 823 804 804 811 805 795 791 788 785 784 787 790 792 794 796 796
704 709 712 717 721 724 726 727 732 734 736 737 739 743 743 746 748 748 766 780 768 760 763 767 770 771 772 774 775 777 777 777 781 785 786 786 786 788 792 797 798 805 812 808 810 821 824 824 823 819 820 820 823 830 830 821 820 834 844 839 835 838 837 837 835 833 840 840 832 839 846 838 819 802 802 808 804 795 786 782 783 785 788 790 790 792 794 795
702 707 711 714 718 723 726 730 732 732 735 737 739 741 743 746 747 759 779 772 756 761 766 766 768 769 772 775 778 779 777 780 782 783 786 786 786 790 794 798 799 805 812 811 815 823 826 827 826 824 823 825 831 839 840 832 829 835 836 831 833 837 835 837 835 832 839 840 838 849 855 845 826 804 795 797 795 791 784 781 784 787 789 789 790 791 792 793
699 704 709 712 715 719 722 728 731 731 734 735 738 741 742 748 752 765 777 757 748 766 770 767 768 766 767 769 774 779 780 783 783 781 785 787 789 792 796 800 802 808 814 814 819 825 826 826 826 828 833 832 830 834 840 841 837 832 826 823 831 836 836 837 836 838 842 840 844 858 861 854 836 807 790 789 789 790 790 786 786 787 788 788 789 790 791 792
697 702 708 711 715 718 719 723 726 730 734 734 739 740 739 753 761 759 759 747 746 762 761 760 765 764 763 764 770 779 781 783 783 779 781 785 790 791 792 795 798 810 819 816 819 823 823 824 826 830 835 832 823 826 839 842 835 829 822 821 830 839 845 844 843 845 842 840 851 860 859 851 829 801 790 790 787 788 790 788 786 786 786 786 787 788 790 792
696 701 708 712 714 718 719 722 725 728 732 734 739 738 738 757 760 747 748 747 745 750 750 754 762 762 762 765 773 778 779 783 783 780 781 783 787 791 791 793 792 798 808 813 819 823 823 825 827 827 829 828 820 820 831 835 831 825 818 817 825 839 851 852 852 855 847 844 855 861 856 842 818 796 788 786 783 784 788 789 789 789 788 787 788 790 790 790
695 700 707 712 714 718 719 721 724 726 729 733 735 737 746 756 747 736 743 748 746 748 749 754 761 764 763 765 771 772 775 784 784 781 785 786 789 793 793 795 795 792 799 810 814 817 820 822 822 821 823 825 821 818 818 818 822 823 816 814 819 826 835 840 842 843 842 846 857 862 850 825 805 794 787 785 786 789 791 792 794 794 793 792 792 792 789 787
695 701 705 710 714 716 718 720 723 725 729 731 732 738 746 744 734 730 736 742 748 752 751 753 759 765 768 770 773 770 769 781 785 782 785 785 785 788 787 789 794 792 795 806 810 811 813 815 820 828 830 827 822 822 819 813 820 828 824 820 819 815 820 839 851 847 845 847 848 851 837 810 796 788 782 785 789 789 790 792 794 792 791 794 792 788 786 785
694 701 705 709 712 714 717 719 722 726 728 728 733 736 731 723 721 723 727 735 744 748 752 758 760 764 771 774 776 773 769 775 783 784 786 785 782 782 782 780 786 789 786 793 805 809 810 816 825 830 832 829 826 826 823 817 819 825 825 823 823 818 818 837 859 861 855 842 831 835 826 805 799 788 776 781 785 783 786 788 788 788 789 791 787 783 784 784
691 698 703 707 710 712 716 718 721 727 727 727 730 727 716 713 717 720 724 732 738 739 744 755 759 760 765 770 772 773 770 774 782 783 783 786 782 778 780 778 779 782 779 782 794 799 802 816 828 827 824 829 833 830 825 822 821 822 822 819 821 825 821 822 837 851 852 839 827 832 825 809 808 797 778 779 781 777 780 783 784 785 786 786 782 780 783 783
688 695 702 705 708 711 714 718 722 727 730 729 726 719 714 716 719 721 724 729 733 733 736 746 753 755 757 762 766 770 769 771 780 781 779 783 778 771 775 777 776 778 776 778 787 791 794 808 826 831 826 827 832 827 822 824 824 821 819 816 816 823 824 823 831 838 842 839 828 829 831 820 812 799 780 778 779 774 775 780 781 781 781 780 779 779 781 782
687 695 702 705 707 710 714 719 723 728 733 730 722 716 715 717 721 723 722 724 729 732 733 739 747 753 755 754 759 767 767 767 775 777 775 779 776 768 768 769 773 778 777 778 784 790 794 801 818 830 828 826 827 823 819 821 824 824 821 820 818 818 818 819 823 822 824 832 829 826 827 815 800 792 782 776 774 771 773 777 777 777 777 777 778 779 780 781
684 692 701 703 706 710 714 720 726 731 731 720 711 712 714 717 725 726 719 719 726 729 730 735 742 749 754 755 757 763 765 766 771 771 770 773 774 771 768 765 770 779 781 781 782 789 795 798 811 827 830 826 823 820 817 812 815 819 819 820 820 821 821 818 820 824 821 823 827 826 818 798 785 787 781 772 771 772 776 778 778 778 777 778 780 780 779 779
682 690 699 702 705 709 714 722 727 729 722 711 708 713 715 717 724 726 722 721 725 728 729 732 737 742 749 754 755 758 764 768 769 768 768 770 768 767 765 762 767 777 782 785 783 786 793 797 809 826 829 823 819 822 825 819 814 813 811 811 811 815 820 818 823 834 831 825 825 826 817 792 778 783 780 773 775 778 781 783 780 780 780 780 781 781 780 779
681 689 696 699 703 706 711 718 722 720 716 713 713 716 716 716 719 723 725 723 723 727 728 731 736 739 742 746 748 753 760 766 769 767 764 764 760 758 760 761 765 771 775 779 781 785 791 798 812 825 825 821 823 830 838 836 824 816 813 811 808 808 810 810 816 825 833 837 834 832 825 794 776 786 787 782 785 787 789 789 783 780 781 781 782 782 782 781
683 690 696 698 702 703 706 716 722 720 719 718 716 717 718 717 717 721 724 721 721 725 726 729 734 737 740 743 747 751 753 760 766 762 758 761 759 758 762 764 765 768 772 776 781 787 791 794 809 823 824 822 823 827 833 835 827 817 814 814 810 807 803 804 809 811 821 833 827 828 827 795 776 790 794 791 795 794 793 791 785 782 781 781 782 781 781 781
687 692 698 701 704 703 703 708 713 714 716 718 717 718 721 719 718 720 719 717 720 722 722 727 730 733 738 741 743 745 747 754 761 759 757 760 761 762 764 764 764 766 767 769 772 779 784 788 800 819 826 825 823 824 825 826 823 814 810 811 810 808 809 813 815 812 816 821 813 816 816 789 777 791 791 789 793 789 786 788 787 785 782 780 781 780 781 781
691 695 700 702 704 705 703 700 699 703 713 719 719 718 719 720 722 722 717 717 721 719 718 725 729 729 735 739 742 744 743 745 753 757 760 761 762 765 766 764 763 760 759 762 764 770 779 783 789 803 816 820 820 817 810 808 812 812 811 813 810 808 809 808 810 813 814 816 814 810 800 782 778 786 782 781 785 781 778 782 785 786 783 779 779 779 780 780
693 697 700 703 705 705 705 702 699 702 711 716 719 720 718 717 721 724 719 719 723 720 718 725 727 728 735 738 741 746 745 745 751 754 756 758 761 766 768 766 764 762 761 761 762 770 780 782 781 784 789 793 793 791 786 787 797 804 804 805 805 806 806 802 807 810 807 813 819 807 790 782 779 780 778 776 777 777 776 777 779 782 783 780 779 780 781 782
694 696 698 701 705 706 707 707 702 701 705 710 714 716 715 715 718 723 721 719 722 720 720 725 724 724 731 734 738 744 744 747 753 752 751 756 761 767 771 769 767 767 767 764 762 770 780 782 781 779 777 775 773 776 779 782 787 790 791 796 801 805 806 804 804 799 797 810 815 798 790 790 781 775 776 772 771 774 776 776 776 777 779 780 781 783 783 782
698 699 699 699 700 702 702 702 701 701 703 707 711 713 714 714 714 716 719 723 724 719 719 724 723 719 723 726 731 740 745 750 753 750 749 755 761 766 769 769 770 770 770 768 765 768 777 780 778 779 778 773 772 778 781 781 782 783 786 793 799 804 806 804 799 792 793 801 797 782 785 789 778 771 771 767 767 771 772 775 777 777 779 781 782 783 782 780
702 703 703 700 700 701 698 697 701 704 705 707 711 713 712 712 710 711 715 721 723 719 716 719 720 719 721 721 724 733 742 745 746 748 751 756 760 763 765 767 770 771 770 770 769 768 772 775 777 779 779 775 777 784 785 782 782 784 787 791 797 801 802 798 792 789 789 790 782 773 777 779 771 767 768 766 769 774 776 778 779 777 778 780 782 782 781 779
703 702 702 701 702 702 699 699 704 707 708 708 709 712 712 710 710 712 715 715 715 717 716 714 716 720 722 720 720 726 730 727 728 739 748 754 757 758 759 760 765 771 772 770 772 771 770 774 779 781 782 781 783 789 789 786 784 785 790 795 797 800 801 798 793 790 791 791 783 777 780 778 766 762 766 770 774 778 778 776 775 774 776 779 781 780 778 776
702 701 699 698 701 702 700 700 703 707 709 707 705 708 710 710 710 711 715 716 712 712 713 712 716 723 727 724 719 719 721 719 721 730 736 741 744 745 748 751 757 767 771 770 771 770 771 779 782 782 785 784 786 791 794 793 790 790 797 801 800 799 798 795 789 785 787 788 785 786 789 779 761 758 766 770 772 774 772 769 771 773 774 777 777 775 772 770
702 702 699 696 700 704 701 700 704 707 706 703 701 704 706 708 710 709 711 717 717 713 714 712 714 722 728 728 721 717 721 724 726 731 735 735 737 739 742 746 749 755 762 768 770 768 769 774 777 781 783 782 790 799 796 794 796 795 792 792 793 791 788 785 783 780 779 781 783 785 779 764 754 759 766 769 769 769 767 766 767 767 768 772 771 769 767 766